Hlavní strana
METAR-TAF:

METAR-TAF

Letiště :

Summerville, Jižní Karolína, Spojené státy americké

zeměpisná šířka: 33-03-48N, zeměpisná délka: 080-16-46W, výška: 17 m

Aktuální stav počasí

Zpráva byla vytvořena před 16 minutami, v 16:15 UTC
Bezvětří
Teplota 31°C
Vlhkost vzduchu 55%
Tlak 1015 hPa
Viditelnost: 16.1 km
Jasno

METAR: KDYB 031615Z AUTO 00000G10KT 10SM CLR 31/21 A2997 RMK AO2

Čas: 12:31 (16:31 UTC)


TAF: chybějící

Stav a předpovědi počasí z více než 4 000 letišť (zprávy METAR a TAF).

Červené a žluté tečky na mapě představují dostupné meteorologické stanice.

Když kurzor umístíte na tečku, zobrazí se název stanice.

Pak kliknutím zobrazíte stav a předpověď počasí.

Chcete-li změnit mapu, kliknutím na zelené tlačítko se znaménkem +mapu přiblížíte, kliknutím na zelené tlačítko se znaménkem – mapu oddálíte a kliknutím na zelené šipky přejdete na sousední mapy.


METAR-TAF: